Time,TemperatureF,DewpointF,PressureIn,WindDirection,WindDirectionDegrees,WindSpeedMPH,WindSpeedGustMPH,Humidity,HourlyPrecipIn,Conditions,Clouds,dailyrainin,SoftwareType,DateUTC
2013-03-03 00:04:00,54.9,50.5,30.12,ENE,64,0.0,0.0,85,0.00,,,0.00,WeatherCatV1.14B232,2013-03-03 08:04:00,
2013-03-03 00:09:00,54.9,50.5,30.13,ENE,64,0.0,0.0,85,0.00,,,0.00,WeatherCatV1.14B232,2013-03-03 08:09:00,
2013-03-03 00:14:00,54.6,50.2,30.12,East,95,0.0,0.0,85,0.00,,,0.00,WeatherCatV1.14B232,2013-03-03 08:14:00,
2013-03-03 00:19:00,54.4,50.3,30.13,East,95,0.0,0.0,86,0.00,,,0.00,WeatherCatV1.14B232,2013-03-03 08:19:00,
2013-03-03 00:24:00,54.2,50.1,30.12,ENE,69,0.0,1.0,86,0.00,,,0.00,WeatherCatV1.14B232,2013-03-03 08:24:00,
2013-03-03 00:29:00,54.2,50.1,30.13,ENE,69,0.0,0.0,86,0.00,,,0.00,WeatherCatV1.14B232,2013-03-03 08:29:00,
2013-03-03 00:34:00,54.1,50.0,30.12,ENE,69,0.0,0.0,86,0.00,,,0.00,WeatherCatV1.14B232,2013-03-03 08:34:00,
2013-03-03 00:39:00,54.0,49.9,30.13,ENE,69,0.0,0.0,86,0.00,,,0.00,WeatherCatV1.14B232,2013-03-03 08:39:00,
2013-03-03 00:44:00,53.9,50.1,30.12,ENE,69,0.0,0.0,87,0.00,,,0.00,WeatherCatV1.14B232,2013-03-03 08:44:00,
2013-03-03 00:49:00,53.8,50.0,30.12,SE,130,0.0,0.0,87,0.00,,,0.00,WeatherCatV1.14B232,2013-03-03 08:49:00,
2013-03-03 00:54:00,53.8,50.0,30.12,SE,130,0.0,0.0,87,0.00,,,0.00,WeatherCatV1.14B232,2013-03-03 08:54:00,
2013-03-03 00:59:00,53.8,50.0,30.12,SE,130,0.0,0.0,87,0.00,,,0.00,WeatherCatV1.14B232,2013-03-03 08:59:00,
2013-03-03 01:04:00,53.7,49.9,30.12,SE,130,0.0,0.0,87,0.00,,,0.00,WeatherCatV1.14B232,2013-03-03 09:04:00,
2013-03-03 01:09:00,53.6,49.8,30.12,SE,130,0.0,0.0,87,0.00,,,0.00,WeatherCatV1.14B232,2013-03-03 09:09:00,
2013-03-03 01:14:00,53.6,49.8,30.12,SE,130,0.0,1.0,87,0.00,,,0.00,WeatherCatV1.14B232,2013-03-03 09:14:00,
2013-03-03 01:19:00,53.5,49.7,30.12,SE,130,0.0,0.0,87,0.00,,,0.00,WeatherCatV1.14B232,2013-03-03 09:19:00,
2013-03-03 01:24:00,53.4,49.9,30.12,SE,130,0.0,0.0,88,0.00,,,0.00,WeatherCatV1.14B232,2013-03-03 09:24:00,
2013-03-03 01:29:00,53.3,49.8,30.12,SE,130,0.0,0.0,88,0.00,,,0.00,WeatherCatV1.14B232,2013-03-03 09:29:00,
2013-03-03 01:34:00,53.3,49.8,30.12,SE,130,0.0,0.0,88,0.00,,,0.00,WeatherCatV1.14B232,2013-03-03 09:34:00,
2013-03-03 01:39:00,53.3,49.8,30.13,SE,130,0.0,0.0,88,0.00,,,0.00,WeatherCatV1.14B232,2013-03-03 09:39:00,
2013-03-03 01:44:00,53.3,49.8,30.12,SE,130,0.0,0.0,88,0.00,,,0.00,WeatherCatV1.14B232,2013-03-03 09:44:00,
2013-03-03 01:49:00,53.2,49.7,30.12,SE,130,0.0,0.0,88,0.00,,,0.00,WeatherCatV1.14B232,2013-03-03 09:49:00,
2013-03-03 01:54:00,53.1,49.6,30.12,SE,130,0.0,0.0,88,0.00,,,0.00,WeatherCatV1.14B232,2013-03-03 09:54:00,
2013-03-03 01:59:00,53.1,49.6,30.11,SE,130,0.0,0.0,88,0.00,,,0.00,WeatherCatV1.14B232,2013-03-03 09:59:00,
2013-03-03 02:04:00,53.2,49.7,30.12,SSW,204,0.0,0.0,88,0.00,,,0.00,WeatherCatV1.14B232,2013-03-03 10:04:00,
2013-03-03 02:09:00,53.2,49.7,30.12,SW,223,0.0,0.0,88,0.00,,,0.00,WeatherCatV1.14B232,2013-03-03 10:09:00,
2013-03-03 02:14:00,53.2,49.7,30.12,SW,223,0.0,0.0,88,0.00,,,0.00,WeatherCatV1.14B232,2013-03-03 10:14:00,
2013-03-03 02:19:00,53.2,50.0,30.11,SW,223,0.0,0.0,89,0.00,,,0.00,WeatherCatV1.14B232,2013-03-03 10:19:00,
2013-03-03 02:24:00,53.2,49.7,30.11,SW,223,0.0,0.0,88,0.00,,,0.00,WeatherCatV1.14B232,2013-03-03 10:24:00,
2013-03-03 02:29:00,53.1,49.9,30.11,SW,223,0.0,0.0,89,0.00,,,0.00,WeatherCatV1.14B232,2013-03-03 10:29:00,
2013-03-03 02:34:00,53.1,49.9,30.11,WSW,238,0.0,1.0,89,0.00,,,0.00,WeatherCatV1.14B232,2013-03-03 10:34:00,
2013-03-03 02:39:00,53.2,50.0,30.11,WSW,238,0.0,0.0,89,0.00,,,0.00,WeatherCatV1.14B232,2013-03-03 10:39:00,
2013-03-03 02:44:00,53.3,50.1,30.11,WSW,238,0.0,0.0,89,0.00,,,0.00,WeatherCatV1.14B232,2013-03-03 10:44:00,
2013-03-03 02:49:00,53.4,50.2,30.11,WSW,239,0.0,1.0,89,0.00,,,0.00,WeatherCatV1.14B232,2013-03-03 10:49:00,
2013-03-03 02:54:00,53.5,50.0,30.10,WSW,238,0.0,0.0,88,0.00,,,0.00,WeatherCatV1.14B232,2013-03-03 10:54:00,
2013-03-03 02:59:00,53.5,50.0,30.10,WSW,238,0.0,0.0,88,0.00,,,0.00,WeatherCatV1.14B232,2013-03-03 10:59:00,
2013-03-03 03:04:00,53.5,50.0,30.10,WSW,238,0.0,0.0,88,0.00,,,0.00,WeatherCatV1.14B232,2013-03-03 11:04:00,
2013-03-03 03:09:00,53.4,49.9,30.10,SSE,153,0.0,0.0,88,0.00,,,0.00,WeatherCatV1.14B232,2013-03-03 11:09:00,
2013-03-03 03:14:00,53.4,49.9,30.10,SSE,153,0.0,0.0,88,0.00,,,0.00,WeatherCatV1.14B232,2013-03-03 11:14:00,
2013-03-03 03:19:00,53.3,49.8,30.10,SSE,153,0.0,0.0,88,0.00,,,0.00,WeatherCatV1.14B232,2013-03-03 11:19:00,
2013-03-03 03:24:00,53.3,49.8,30.09,SSE,153,0.0,0.0,88,0.00,,,0.00,WeatherCatV1.14B232,2013-03-03 11:24:00,
2013-03-03 03:29:00,53.2,49.7,30.09,SSE,153,0.0,0.0,88,0.00,,,0.00,WeatherCatV1.14B232,2013-03-03 11:29:00,
2013-03-03 03:34:00,53.2,50.0,30.09,SSE,153,0.0,0.0,89,0.00,,,0.00,WeatherCatV1.14B232,2013-03-03 11:34:00,
2013-03-03 03:39:00,53.1,49.9,30.09,SSE,153,0.0,0.0,89,0.00,,,0.00,WeatherCatV1.14B232,2013-03-03 11:39:00,
2013-03-03 03:44:00,53.1,49.9,30.09,NW,309,1.0,1.0,89,0.00,,,0.00,WeatherCatV1.14B232,2013-03-03 11:44:00,
2013-03-03 03:49:00,53.2,49.7,30.09,WNW,300,0.0,0.0,88,0.00,,,0.00,WeatherCatV1.14B232,2013-03-03 11:49:00,
2013-03-03 03:54:00,53.1,49.6,30.10,NW,312,0.0,0.0,88,0.00,,,0.00,WeatherCatV1.14B232,2013-03-03 11:54:00,
2013-03-03 03:59:00,53.0,49.5,30.10,NW,323,0.0,1.0,88,0.00,,,0.00,WeatherCatV1.14B232,2013-03-03 11:59:00,
2013-03-03 04:04:00,52.9,49.4,30.11,NW,306,0.0,0.0,88,0.00,,,0.00,WeatherCatV1.14B232,2013-03-03 12:04:00,
2013-03-03 04:09:00,52.8,49.6,30.11,NW,306,0.0,0.0,89,0.00,,,0.00,WeatherCatV1.14B232,2013-03-03 12:09:00,
2013-03-03 04:14:00,52.6,49.5,30.11,NE,49,0.0,0.0,89,0.00,,,0.00,WeatherCatV1.14B232,2013-03-03 12:14:00,
2013-03-03 04:19:00,52.6,49.8,30.11,NE,49,0.0,0.0,90,0.00,,,0.00,WeatherCatV1.14B232,2013-03-03 12:19:00,
2013-03-03 04:24:00,52.5,49.7,30.11,NE,51,0.0,0.0,90,0.00,,,0.00,WeatherCatV1.14B232,2013-03-03 12:24:00,
2013-03-03 04:29:00,52.5,49.7,30.10,NE,51,0.0,0.0,90,0.00,,,0.00,WeatherCatV1.14B232,2013-03-03 12:29:00,
2013-03-03 04:34:00,52.4,49.6,30.11,NE,50,0.0,0.0,90,0.00,,,0.00,WeatherCatV1.14B232,2013-03-03 12:34:00,
2013-03-03 04:39:00,52.4,49.6,30.10,NE,50,0.0,0.0,90,0.00,,,0.00,WeatherCatV1.14B232,2013-03-03 12:39:00,
2013-03-03 04:44:00,52.4,49.6,30.10,NE,50,0.0,0.0,90,0.00,,,0.00,WeatherCatV1.14B232,2013-03-03 12:44:00,
2013-03-03 04:49:00,52.3,49.5,30.10,NE,50,0.0,0.0,90,0.00,,,0.00,WeatherCatV1.14B232,2013-03-03 12:49:00,
2013-03-03 04:54:00,52.3,49.5,30.11,NE,50,0.0,0.0,90,0.00,,,0.00,WeatherCatV1.14B232,2013-03-03 12:54:00,
2013-03-03 04:59:00,52.2,49.4,30.11,ENE,76,0.0,0.0,90,0.00,,,0.00,WeatherCatV1.14B232,2013-03-03 12:59:00,
2013-03-03 05:04:00,52.2,49.1,30.10,ENE,76,0.0,0.0,89,0.00,,,0.00,WeatherCatV1.14B232,2013-03-03 13:04:00,
2013-03-03 05:09:00,52.2,49.1,30.10,NW,325,0.0,1.0,89,0.00,,,0.00,WeatherCatV1.14B232,2013-03-03 13:09:00,
2013-03-03 05:14:00,52.1,49.0,30.10,NW,325,0.0,0.0,89,0.00,,,0.00,WeatherCatV1.14B232,2013-03-03 13:14:00,
2013-03-03 05:19:00,52.0,48.9,30.10,NW,325,0.0,0.0,89,0.00,,,0.00,WeatherCatV1.14B232,2013-03-03 13:19:00,
2013-03-03 05:24:00,51.8,48.7,30.11,NW,325,0.0,0.0,89,0.00,,,0.00,WeatherCatV1.14B232,2013-03-03 13:24:00,
2013-03-03 05:29:00,51.8,48.7,30.11,NW,325,0.0,0.0,89,0.00,,,0.00,WeatherCatV1.14B232,2013-03-03 13:29:00,
2013-03-03 05:34:00,51.7,48.6,30.11,NNW,329,0.0,0.0,89,0.00,,,0.00,WeatherCatV1.14B232,2013-03-03 13:34:00,
2013-03-03 05:38:00,51.6,48.5,30.10,NNW,329,0.0,0.0,89,0.00,,,0.00,WeatherCatV1.14B232,2013-03-03 13:38:00,
2013-03-03 05:43:00,51.6,48.8,30.10,NNW,329,0.0,0.0,90,0.00,,,0.00,WeatherCatV1.14B232,2013-03-03 13:43:00,
2013-03-03 05:48:00,51.4,48.6,30.10,NNW,329,0.0,0.0,90,0.00,,,0.00,WeatherCatV1.14B232,2013-03-03 13:48:00,
2013-03-03 05:53:00,51.4,48.6,30.10,NNW,329,0.0,0.0,90,0.00,,,0.00,WeatherCatV1.14B232,2013-03-03 13:53:00,
2013-03-03 05:58:00,51.2,48.4,30.10,NNW,329,0.0,0.0,90,0.00,,,0.00,WeatherCatV1.14B232,2013-03-03 13:58:00,
2013-03-03 06:03:00,51.2,48.7,30.11,NNW,329,0.0,0.0,91,0.00,,,0.00,WeatherCatV1.14B232,2013-03-03 14:03:00,
2013-03-03 06:08:00,51.1,48.6,30.11,NNW,329,0.0,0.0,91,0.00,,,0.00,WeatherCatV1.14B232,2013-03-03 14:08:00,
2013-03-03 06:13:00,51.0,48.5,30.11,NNW,329,0.0,0.0,91,0.00,,,0.00,WeatherCatV1.14B232,2013-03-03 14:13:00,
2013-03-03 06:18:00,50.8,48.3,30.11,NNW,329,0.0,0.0,91,0.00,,,0.00,WeatherCatV1.14B232,2013-03-03 14:18:00,
2013-03-03 06:23:00,50.7,48.2,30.11,NNW,329,0.0,0.0,91,0.00,,,0.00,WeatherCatV1.14B232,2013-03-03 14:23:00,
2013-03-03 06:28:00,50.7,48.5,30.11,NNW,329,0.0,0.0,92,0.00,,,0.00,WeatherCatV1.14B232,2013-03-03 14:28:00,
2013-03-03 06:33:00,50.6,48.4,30.11,NNW,329,0.0,0.0,92,0.00,,,0.00,WeatherCatV1.14B232,2013-03-03 14:33:00,
2013-03-03 06:38:00,50.5,48.3,30.11,NNW,329,0.0,0.0,92,0.00,,,0.00,WeatherCatV1.14B232,2013-03-03 14:38:00,
2013-03-03 06:43:00,50.6,48.4,30.11,NNW,329,0.0,0.0,92,0.00,,,0.00,WeatherCatV1.14B232,2013-03-03 14:43:00,
2013-03-03 06:48:00,50.6,48.4,30.11,NNW,329,0.0,0.0,92,0.00,,,0.00,WeatherCatV1.14B232,2013-03-03 14:48:00,
2013-03-03 06:53:00,50.6,48.4,30.11,NNW,329,0.0,0.0,92,0.00,,,0.00,WeatherCatV1.14B232,2013-03-03 14:53:00,
2013-03-03 06:58:00,50.7,48.5,30.11,NNW,329,0.0,0.0,92,0.00,,,0.00,WeatherCatV1.14B232,2013-03-03 14:58:00,
2013-03-03 07:03:00,50.7,48.5,30.12,NNW,329,0.0,0.0,92,0.00,,,0.00,WeatherCatV1.14B232,2013-03-03 15:03:00,
2013-03-03 07:08:00,50.8,48.6,30.12,NNW,329,0.0,0.0,92,0.00,,,0.00,WeatherCatV1.14B232,2013-03-03 15:08:00,
2013-03-03 07:13:00,50.9,48.7,30.12,NNW,329,0.0,0.0,92,0.00,,,0.00,WeatherCatV1.14B232,2013-03-03 15:13:00,
2013-03-03 07:18:00,51.1,48.9,30.12,NNW,329,0.0,0.0,92,0.00,,,0.00,WeatherCatV1.14B232,2013-03-03 15:18:00,
2013-03-03 07:23:00,51.2,49.0,30.12,NNW,329,0.0,0.0,92,0.00,,,0.00,WeatherCatV1.14B232,2013-03-03 15:23:00,
2013-03-03 07:28:00,51.4,49.2,30.12,NNW,329,0.0,0.0,92,0.00,,,0.00,WeatherCatV1.14B232,2013-03-03 15:28:00,
2013-03-03 07:33:00,51.5,49.0,30.12,NNW,329,0.0,0.0,91,0.00,,,0.00,WeatherCatV1.14B232,2013-03-03 15:33:00,
2013-03-03 07:38:00,51.6,49.1,30.13,NNW,329,0.0,0.0,91,0.00,,,0.00,WeatherCatV1.14B232,2013-03-03 15:38:00,
2013-03-03 07:43:00,51.8,49.3,30.13,NNW,331,0.0,0.0,91,0.00,,,0.00,WeatherCatV1.14B232,2013-03-03 15:43:00,
2013-03-03 07:48:00,52.0,49.5,30.13,NNW,334,0.0,0.0,91,0.00,,,0.00,WeatherCatV1.14B232,2013-03-03 15:48:00,
2013-03-03 07:53:00,52.3,49.8,30.13,ESE,103,0.0,0.0,91,0.00,,,0.00,WeatherCatV1.14B232,2013-03-03 15:53:00,
2013-03-03 07:58:00,52.5,49.7,30.13,WSW,238,0.0,0.0,90,0.00,,,0.00,WeatherCatV1.14B232,2013-03-03 15:58:00,
2013-03-03 08:03:00,52.8,49.9,30.13,WSW,240,0.0,0.0,90,0.00,,,0.00,WeatherCatV1.14B232,2013-03-03 16:03:00,
2013-03-03 08:08:00,53.0,49.8,30.13,SE,124,0.0,2.0,89,0.00,,,0.00,WeatherCatV1.14B232,2013-03-03 16:08:00,
2013-03-03 08:13:00,53.2,50.0,30.13,SE,135,1.0,1.0,89,0.00,,,0.00,WeatherCatV1.14B232,2013-03-03 16:13:00,
2013-03-03 08:18:00,53.4,49.9,30.12,SE,130,0.0,0.0,88,0.00,,,0.00,WeatherCatV1.14B232,2013-03-03 16:18:00,
2013-03-03 08:23:00,53.7,50.2,30.12,SE,132,0.0,2.0,88,0.00,,,0.00,WeatherCatV1.14B232,2013-03-03 16:23:00,
2013-03-03 08:28:00,53.9,50.1,30.13,SE,138,0.0,0.0,87,0.00,,,0.00,WeatherCatV1.14B232,2013-03-03 16:28:00,
2013-03-03 08:33:00,54.1,50.3,30.13,SE,124,1.0,2.0,87,0.00,,,0.00,WeatherCatV1.14B232,2013-03-03 16:33:00,
2013-03-03 08:38:00,54.2,50.4,30.13,SSE,165,0.0,1.0,87,0.00,,,0.00,WeatherCatV1.14B232,2013-03-03 16:38:00,
2013-03-03 08:43:00,54.5,50.4,30.13,SSE,153,0.0,0.0,86,0.00,,,0.00,WeatherCatV1.14B232,2013-03-03 16:43:00,
2013-03-03 08:48:00,54.8,50.7,30.13,East,82,1.0,1.0,86,0.00,,,0.00,WeatherCatV1.14B232,2013-03-03 16:48:00,
2013-03-03 08:53:00,55.1,50.7,30.13,South,173,0.0,2.0,85,0.00,,,0.00,WeatherCatV1.14B232,2013-03-03 16:53:00,
2013-03-03 08:58:00,55.3,50.9,30.13,East,98,1.0,2.0,85,0.00,,,0.00,WeatherCatV1.14B232,2013-03-03 16:58:00,
2013-03-03 09:03:00,56.4,51.3,30.12,NE,48,0.0,0.0,83,0.00,,,0.00,WeatherCatV1.14B232,2013-03-03 17:03:00,
2013-03-03 09:08:00,57.4,52.3,30.12,ESE,103,1.0,1.0,83,0.00,,,0.00,WeatherCatV1.14B232,2013-03-03 17:08:00,
2013-03-03 09:13:00,58.2,51.0,30.13,East,101,0.0,1.0,77,0.00,,,0.00,WeatherCatV1.14B232,2013-03-03 17:13:00,
2013-03-03 09:18:00,58.3,51.1,30.12,ENE,58,1.0,2.0,77,0.00,,,0.00,WeatherCatV1.14B232,2013-03-03 17:18:00,
2013-03-03 09:23:00,58.5,51.0,30.13,East,83,0.0,0.0,76,0.00,,,0.00,WeatherCatV1.14B232,2013-03-03 17:23:00,
2013-03-03 09:28:00,58.3,50.8,30.13,NE,40,0.0,0.0,76,0.00,,,0.00,WeatherCatV1.14B232,2013-03-03 17:28:00,
2013-03-03 09:33:00,58.2,50.3,30.13,East,91,0.0,0.0,75,0.00,,,0.00,WeatherCatV1.14B232,2013-03-03 17:33:00,
2013-03-03 09:38:00,58.3,50.0,30.13,NW,310,0.0,1.0,74,0.00,,,0.00,WeatherCatV1.14B232,2013-03-03 17:38:00,
2013-03-03 09:43:00,58.0,49.8,30.13,NW,310,0.0,0.0,74,0.00,,,0.00,WeatherCatV1.14B232,2013-03-03 17:43:00,
2013-03-03 09:48:00,57.9,50.0,30.13,WSW,257,0.0,1.0,75,0.00,,,0.00,WeatherCatV1.14B232,2013-03-03 17:48:00,
2013-03-03 09:53:00,57.9,50.0,30.13,WSW,250,0.0,1.0,75,0.00,,,0.00,WeatherCatV1.14B232,2013-03-03 17:53:00,
2013-03-03 09:58:00,57.9,49.3,30.13,WNW,290,0.0,1.0,73,0.00,,,0.00,WeatherCatV1.14B232,2013-03-03 17:58:00,
2013-03-03 10:03:00,57.9,49.3,30.13,WSW,248,0.0,1.0,73,0.00,,,0.00,WeatherCatV1.14B232,2013-03-03 18:03:00,
2013-03-03 10:08:00,57.9,48.6,30.13,West,269,0.0,1.0,71,0.00,,,0.00,WeatherCatV1.14B232,2013-03-03 18:08:00,
2013-03-03 10:13:00,58.2,48.8,30.13,West,279,1.0,1.0,71,0.00,,,0.00,WeatherCatV1.14B232,2013-03-03 18:13:00,
2013-03-03 10:18:00,58.3,48.2,30.13,West,273,0.0,0.0,69,0.00,,,0.00,WeatherCatV1.14B232,2013-03-03 18:18:00,
2013-03-03 10:23:00,58.3,48.2,30.13,West,273,0.0,0.0,69,0.00,,,0.00,WeatherCatV1.14B232,2013-03-03 18:23:00,
2013-03-03 10:28:00,58.6,47.7,30.13,NNE,24,1.0,2.0,67,0.00,,,0.00,WeatherCatV1.14B232,2013-03-03 18:28:00,
2013-03-03 10:33:00,58.6,46.9,30.13,NNE,24,0.0,1.0,65,0.00,,,0.00,WeatherCatV1.14B232,2013-03-03 18:33:00,
2013-03-03 10:38:00,59.0,47.7,30.13,WSW,252,1.0,3.0,66,0.00,,,0.00,WeatherCatV1.14B232,2013-03-03 18:38:00,
2013-03-03 10:43:00,59.0,46.8,30.12,WSW,255,0.0,2.0,64,0.00,,,0.00,WeatherCatV1.14B232,2013-03-03 18:43:00,
2013-03-03 10:48:00,59.0,47.2,30.12,WSW,256,0.0,1.0,65,0.00,,,0.00,WeatherCatV1.14B232,2013-03-03 18:48:00,
2013-03-03 10:53:00,60.1,48.3,30.12,NNW,333,0.0,2.0,65,0.00,,,0.00,WeatherCatV1.14B232,2013-03-03 18:53:00,
2013-03-03 10:58:00,61.3,49.0,30.12,East,79,0.0,1.0,64,0.00,,,0.00,WeatherCatV1.14B232,2013-03-03 18:58:00,
2013-03-03 11:03:00,62.7,48.2,30.12,North,11,1.0,3.0,59,0.00,,,0.00,WeatherCatV1.14B232,2013-03-03 19:03:00,
2013-03-03 11:08:00,62.6,49.0,30.12,West,267,1.0,3.0,61,0.00,,,0.00,WeatherCatV1.14B232,2013-03-03 19:08:00,
2013-03-03 11:13:00,63.1,49.0,30.12,West,269,0.0,3.0,60,0.00,,,0.00,WeatherCatV1.14B232,2013-03-03 19:13:00,
2013-03-03 11:18:00,63.4,48.8,30.12,West,277,2.0,2.0,59,0.00,,,0.00,WeatherCatV1.14B232,2013-03-03 19:18:00,
2013-03-03 11:23:00,64.8,48.7,30.12,North,5,3.0,5.0,56,0.00,,,0.00,WeatherCatV1.14B232,2013-03-03 19:23:00,
2013-03-03 11:28:00,65.6,48.5,30.12,ESE,104,0.0,2.0,54,0.00,,,0.00,WeatherCatV1.14B232,2013-03-03 19:28:00,
2013-03-03 11:33:00,65.8,49.2,30.12,ESE,104,0.0,1.0,55,0.00,,,0.00,WeatherCatV1.14B232,2013-03-03 19:33:00,
2013-03-03 11:38:00,66.1,49.5,30.12,ENE,69,1.0,1.0,55,0.00,,,0.00,WeatherCatV1.14B232,2013-03-03 19:38:00,
2013-03-03 11:43:00,64.1,47.1,30.11,WSW,238,0.0,3.0,54,0.00,,,0.00,WeatherCatV1.14B232,2013-03-03 19:43:00,
2013-03-03 11:48:00,64.5,48.4,30.11,WSW,249,0.0,2.0,56,0.00,,,0.00,WeatherCatV1.14B232,2013-03-03 19:48:00,
2013-03-03 11:53:00,64.8,49.2,30.11,North,5,0.0,3.0,57,0.00,,,0.00,WeatherCatV1.14B232,2013-03-03 19:53:00,
2013-03-03 11:58:00,65.8,48.2,30.11,NNE,27,1.0,4.0,53,0.00,,,0.00,WeatherCatV1.14B232,2013-03-03 19:58:00,
2013-03-03 12:03:00,65.1,49.0,30.11,NE,49,3.0,3.0,56,0.00,,,0.00,WeatherCatV1.14B232,2013-03-03 20:03:00,
2013-03-03 12:08:00,63.4,48.4,30.11,North,0,1.0,5.0,58,0.00,,,0.00,WeatherCatV1.14B232,2013-03-03 20:08:00,
2013-03-03 12:13:00,63.7,49.5,30.10,North,355,4.0,5.0,60,0.00,,,0.00,WeatherCatV1.14B232,2013-03-03 20:13:00,
2013-03-03 12:18:00,62.6,49.4,30.10,North,350,2.0,4.0,62,0.00,,,0.00,WeatherCatV1.14B232,2013-03-03 20:18:00,
2013-03-03 12:23:00,62.6,49.4,30.10,ENE,63,2.0,4.0,62,0.00,,,0.00,WeatherCatV1.14B232,2013-03-03 20:23:00,
2013-03-03 12:28:00,63.1,49.4,30.10,NNE,32,5.0,5.0,61,0.00,,,0.00,WeatherCatV1.14B232,2013-03-03 20:28:00,
2013-03-03 12:33:00,63.7,50.0,30.10,ESE,110,3.0,3.0,61,0.00,,,0.00,WeatherCatV1.14B232,2013-03-03 20:33:00,
2013-03-03 12:38:00,64.5,49.8,30.10,NNE,22,4.0,6.0,59,0.00,,,0.00,WeatherCatV1.14B232,2013-03-03 20:38:00,
2013-03-03 12:43:00,63.7,50.4,30.10,NNE,14,4.0,5.0,62,0.00,,,0.00,WeatherCatV1.14B232,2013-03-03 20:43:00,
2013-03-03 12:48:00,64.5,51.2,30.09,NNW,342,3.0,5.0,62,0.00,,,0.00,WeatherCatV1.14B232,2013-03-03 20:48:00,
2013-03-03 12:53:00,64.3,50.6,30.09,East,99,0.0,3.0,61,0.00,,,0.00,WeatherCatV1.14B232,2013-03-03 20:53:00,
2013-03-03 12:57:00,64.5,51.2,30.09,NNE,29,1.0,6.0,62,0.00,,,0.00,WeatherCatV1.14B232,2013-03-03 20:57:00,
2013-03-03 13:03:00,64.6,50.4,30.09,North,11,0.0,6.0,60,0.00,,,0.00,WeatherCatV1.14B232,2013-03-03 21:03:00,
2013-03-03 13:07:00,65.5,50.8,30.08,NE,41,2.0,2.0,59,0.00,,,0.00,WeatherCatV1.14B232,2013-03-03 21:07:00,
2013-03-03 13:12:00,66.3,50.1,30.08,NW,306,0.0,2.0,56,0.00,,,0.00,WeatherCatV1.14B232,2013-03-03 21:12:00,
2013-03-03 13:17:00,65.6,49.9,30.08,North,0,0.0,2.0,57,0.00,,,0.00,WeatherCatV1.14B232,2013-03-03 21:17:00,
2013-03-03 13:22:00,66.3,46.6,30.08,West,268,1.0,4.0,49,0.00,,,0.00,WeatherCatV1.14B232,2013-03-03 21:22:00,
2013-03-03 13:27:00,66.2,46.5,30.08,WNW,290,2.0,2.0,49,0.00,,,0.00,WeatherCatV1.14B232,2013-03-03 21:27:00,
2013-03-03 13:32:00,65.6,45.4,30.08,North,0,3.0,4.0,48,0.00,,,0.00,WeatherCatV1.14B232,2013-03-03 21:32:00,
2013-03-03 13:37:00,65.7,44.9,30.08,NNW,333,0.0,7.0,47,0.00,,,0.00,WeatherCatV1.14B232,2013-03-03 21:37:00,
2013-03-03 13:42:00,65.7,43.8,30.08,WSW,248,2.0,6.0,45,0.00,,,0.00,WeatherCatV1.14B232,2013-03-03 21:42:00,
2013-03-03 13:47:00,65.0,44.3,30.08,West,275,0.0,6.0,47,0.00,,,0.00,WeatherCatV1.14B232,2013-03-03 21:47:00,
2013-03-03 13:52:00,65.5,44.7,30.08,WSW,250,2.0,2.0,47,0.00,,,0.00,WeatherCatV1.14B232,2013-03-03 21:52:00,
2013-03-03 13:57:00,65.5,45.3,30.08,West,262,3.0,7.0,48,0.00,,,0.00,WeatherCatV1.14B232,2013-03-03 21:57:00,
2013-03-03 14:02:00,65.8,45.6,30.08,West,259,0.0,8.0,48,0.00,,,0.00,WeatherCatV1.14B232,2013-03-03 22:02:00,
2013-03-03 14:07:00,66.1,45.3,30.08,WNW,299,0.0,12.0,47,0.00,,,0.00,WeatherCatV1.14B232,2013-03-03 22:07:00,
2013-03-03 14:12:00,66.3,46.0,30.08,NNW,330,0.0,2.0,48,0.00,,,0.00,WeatherCatV1.14B232,2013-03-03 22:12:00,
2013-03-03 14:17:00,66.3,44.3,30.08,North,355,1.0,3.0,45,0.00,,,0.00,WeatherCatV1.14B232,2013-03-03 22:17:00,
2013-03-03 14:22:00,65.6,44.8,30.07,NW,320,1.0,3.0,47,0.00,,,0.00,WeatherCatV1.14B232,2013-03-03 22:22:00,
2013-03-03 14:27:00,65.5,44.7,30.07,WNW,282,2.0,5.0,47,0.00,,,0.00,WeatherCatV1.14B232,2013-03-03 22:27:00,
2013-03-03 14:32:00,65.1,44.9,30.07,WSW,252,1.0,3.0,48,0.00,,,0.00,WeatherCatV1.14B232,2013-03-03 22:32:00,
2013-03-03 14:37:00,65.5,44.7,30.07,NNW,338,0.0,5.0,47,0.00,,,0.00,WeatherCatV1.14B232,2013-03-03 22:37:00,
2013-03-03 14:42:00,65.9,45.1,30.07,NW,316,2.0,3.0,47,0.00,,,0.00,WeatherCatV1.14B232,2013-03-03 22:42:00,
2013-03-03 14:47:00,66.0,45.7,30.07,West,272,0.0,2.0,48,0.00,,,0.00,WeatherCatV1.14B232,2013-03-03 22:47:00,
2013-03-03 14:52:00,66.1,45.8,30.07,NW,322,0.0,1.0,48,0.00,,,0.00,WeatherCatV1.14B232,2013-03-03 22:52:00,
2013-03-03 14:57:00,65.5,44.7,30.07,WSW,257,0.0,4.0,47,0.00,,,0.00,WeatherCatV1.14B232,2013-03-03 22:57:00,
2013-03-03 15:02:00,65.1,43.8,30.07,North,355,1.0,8.0,46,0.00,,,0.00,WeatherCatV1.14B232,2013-03-03 23:02:00,
2013-03-03 15:07:00,64.9,43.6,30.07,NNW,341,1.0,4.0,46,0.00,,,0.00,WeatherCatV1.14B232,2013-03-03 23:07:00,
2013-03-03 15:12:00,64.6,44.5,30.07,WSW,257,3.0,6.0,48,0.00,,,0.00,WeatherCatV1.14B232,2013-03-03 23:12:00,
2013-03-03 15:17:00,65.0,44.8,30.07,North,355,0.0,2.0,48,0.00,,,0.00,WeatherCatV1.14B232,2013-03-03 23:17:00,
2013-03-03 15:22:00,65.0,44.8,30.06,WSW,254,0.0,3.0,48,0.00,,,0.00,WeatherCatV1.14B232,2013-03-03 23:22:00,
2013-03-03 15:27:00,64.3,44.2,30.06,WSW,256,0.0,1.0,48,0.00,,,0.00,WeatherCatV1.14B232,2013-03-03 23:27:00,
2013-03-03 15:32:00,64.1,44.0,30.06,WNW,283,0.0,4.0,48,0.00,,,0.00,WeatherCatV1.14B232,2013-03-03 23:32:00,
2013-03-03 15:37:00,64.3,44.2,30.06,NNW,332,0.0,1.0,48,0.00,,,0.00,WeatherCatV1.14B232,2013-03-03 23:37:00,
2013-03-03 15:42:00,64.6,44.5,30.06,NNW,332,0.0,1.0,48,0.00,,,0.00,WeatherCatV1.14B232,2013-03-03 23:42:00,
2013-03-03 15:47:00,64.5,43.3,30.06,NNW,338,0.0,2.0,46,0.00,,,0.00,WeatherCatV1.14B232,2013-03-03 23:47:00,
2013-03-03 15:52:00,64.3,43.6,30.06,NW,325,1.0,6.0,47,0.00,,,0.00,WeatherCatV1.14B232,2013-03-03 23:52:00,
2013-03-03 15:57:00,63.9,44.4,30.06,North,0,0.0,10.0,49,0.00,,,0.00,WeatherCatV1.14B232,2013-03-03 23:57:00,
2013-03-03 16:02:00,63.4,45.0,30.06,NE,38,2.0,5.0,51,0.00,,,0.00,WeatherCatV1.14B232,2013-03-04 00:02:00,
2013-03-03 16:07:00,63.0,45.1,30.06,NNW,338,2.0,7.0,52,0.00,,,0.00,WeatherCatV1.14B232,2013-03-04 00:07:00,
2013-03-03 16:12:00,62.3,44.4,30.06,North,350,5.0,10.0,52,0.00,,,0.00,WeatherCatV1.14B232,2013-03-04 00:12:00,
2013-03-03 16:17:00,61.7,44.4,30.06,North,0,0.0,2.0,53,0.00,,,0.00,WeatherCatV1.14B232,2013-03-04 00:17:00,
2013-03-03 16:22:00,61.2,44.4,30.06,NNW,338,0.0,7.0,54,0.00,,,0.00,WeatherCatV1.14B232,2013-03-04 00:22:00,
2013-03-03 16:27:00,60.9,44.6,30.06,North,355,4.0,6.0,55,0.00,,,0.00,WeatherCatV1.14B232,2013-03-04 00:27:00,
2013-03-03 16:32:00,60.7,44.9,30.06,NE,34,1.0,2.0,56,0.00,,,0.00,WeatherCatV1.14B232,2013-03-04 00:32:00,
2013-03-03 16:37:00,60.4,45.1,30.06,NNW,348,0.0,2.0,57,0.00,,,0.00,WeatherCatV1.14B232,2013-03-04 00:37:00,
2013-03-03 16:42:00,60.2,45.4,30.06,NNW,347,0.0,2.0,58,0.00,,,0.00,WeatherCatV1.14B232,2013-03-04 00:42:00,
2013-03-03 16:47:00,60.0,45.6,30.06,NNW,342,0.0,1.0,59,0.00,,,0.00,WeatherCatV1.14B232,2013-03-04 00:47:00,
2013-03-03 16:52:00,59.6,45.3,30.07,North,0,0.0,2.0,59,0.00,,,0.00,WeatherCatV1.14B232,2013-03-04 00:52:00,
2013-03-03 16:57:00,59.4,45.5,30.07,NNE,18,3.0,3.0,60,0.00,,,0.00,WeatherCatV1.14B232,2013-03-04 00:57:00,
2013-03-03 17:02:00,59.0,45.1,30.07,North,0,0.0,3.0,60,0.00,,,0.00,WeatherCatV1.14B232,2013-03-04 01:02:00,
2013-03-03 17:07:00,59.0,45.1,30.07,North,355,0.0,1.0,60,0.00,,,0.00,WeatherCatV1.14B232,2013-03-04 01:07:00,
2013-03-03 17:12:00,58.5,44.7,30.07,North,355,0.0,1.0,60,0.00,,,0.00,WeatherCatV1.14B232,2013-03-04 01:12:00,
2013-03-03 17:17:00,58.2,44.8,30.07,North,355,0.0,1.0,61,0.00,,,0.00,WeatherCatV1.14B232,2013-03-04 01:17:00,
2013-03-03 17:22:00,57.8,44.4,30.07,North,355,0.0,1.0,61,0.00,,,0.00,WeatherCatV1.14B232,2013-03-04 01:22:00,
2013-03-03 17:27:00,57.5,44.2,30.07,North,355,0.0,0.0,61,0.00,,,0.00,WeatherCatV1.14B232,2013-03-04 01:27:00,
2013-03-03 17:32:00,56.7,46.3,30.07,NW,306,0.0,0.0,68,0.00,,,0.00,WeatherCatV1.14B232,2013-03-04 01:32:00,
2013-03-03 17:37:00,56.1,46.1,30.08,NW,307,0.0,0.0,69,0.00,,,0.00,WeatherCatV1.14B232,2013-03-04 01:37:00,
2013-03-03 17:42:00,55.8,45.8,30.08,NNW,330,0.0,1.0,69,0.00,,,0.00,WeatherCatV1.14B232,2013-03-04 01:42:00,
2013-03-03 17:47:00,55.1,45.1,30.08,NE,42,1.0,1.0,69,0.00,,,0.00,WeatherCatV1.14B232,2013-03-04 01:47:00,
2013-03-03 17:52:00,54.5,44.5,30.08,East,83,0.0,0.0,69,0.00,,,0.00,WeatherCatV1.14B232,2013-03-04 01:52:00,
2013-03-03 17:57:00,54.2,44.3,30.08,East,84,0.0,0.0,69,0.00,,,0.00,WeatherCatV1.14B232,2013-03-04 01:57:00,
2013-03-03 18:02:00,53.9,45.8,30.08,NW,313,0.0,0.0,74,0.00,,,0.00,WeatherCatV1.14B232,2013-03-04 02:02:00,
2013-03-03 18:07:00,53.7,45.3,30.08,NW,313,0.0,0.0,73,0.00,,,0.00,WeatherCatV1.14B232,2013-03-04 02:07:00,
2013-03-03 18:12:00,53.3,45.2,30.09,NW,314,0.0,1.0,74,0.00,,,0.00,WeatherCatV1.14B232,2013-03-04 02:12:00,
2013-03-03 18:17:00,53.1,44.7,30.09,NW,314,0.0,0.0,73,0.00,,,0.00,WeatherCatV1.14B232,2013-03-04 02:17:00,
2013-03-03 18:22:00,52.9,45.2,30.09,NW,314,0.0,0.0,75,0.00,,,0.00,WeatherCatV1.14B232,2013-03-04 02:22:00,
2013-03-03 18:27:00,52.7,45.0,30.09,WSW,248,0.0,0.0,75,0.00,,,0.00,WeatherCatV1.14B232,2013-03-04 02:27:00,
2013-03-03 18:32:00,52.4,44.7,30.09,West,259,0.0,2.0,75,0.00,,,0.00,WeatherCatV1.14B232,2013-03-04 02:32:00,
2013-03-03 18:37:00,52.3,45.0,30.09,WSW,251,0.0,0.0,76,0.00,,,0.00,WeatherCatV1.14B232,2013-03-04 02:37:00,
2013-03-03 18:42:00,52.2,44.9,30.09,WSW,250,0.0,0.0,76,0.00,,,0.00,WeatherCatV1.14B232,2013-03-04 02:42:00,
2013-03-03 18:47:00,51.8,44.5,30.09,WSW,250,0.0,0.0,76,0.00,,,0.00,WeatherCatV1.14B232,2013-03-04 02:47:00,
2013-03-03 18:52:00,51.4,44.4,30.10,WSW,251,0.0,0.0,77,0.00,,,0.00,WeatherCatV1.14B232,2013-03-04 02:52:00,
2013-03-03 18:57:00,51.0,44.0,30.10,WSW,250,0.0,0.0,77,0.00,,,0.00,WeatherCatV1.14B232,2013-03-04 02:57:00,
2013-03-03 19:02:00,50.8,44.5,30.10,WSW,250,0.0,0.0,79,0.00,,,0.00,WeatherCatV1.14B232,2013-03-04 03:02:00,
2013-03-03 19:07:00,50.6,44.7,30.10,WSW,250,0.0,0.0,80,0.00,,,0.00,WeatherCatV1.14B232,2013-03-04 03:07:00,
2013-03-03 19:12:00,50.3,44.7,30.10,WSW,251,0.0,0.0,81,0.00,,,0.00,WeatherCatV1.14B232,2013-03-04 03:12:00,
2013-03-03 19:17:00,50.2,44.6,30.10,WSW,250,0.0,0.0,81,0.00,,,0.00,WeatherCatV1.14B232,2013-03-04 03:17:00,
2013-03-03 19:22:00,49.9,44.6,30.10,WSW,251,0.0,0.0,82,0.00,,,0.00,WeatherCatV1.14B232,2013-03-04 03:22:00,
2013-03-03 19:27:00,49.7,44.4,30.10,WSW,250,0.0,0.0,82,0.00,,,0.00,WeatherCatV1.14B232,2013-03-04 03:27:00,
2013-03-03 19:32:00,49.5,44.6,30.10,WSW,250,0.0,0.0,83,0.00,,,0.00,WeatherCatV1.14B232,2013-03-04 03:32:00,
2013-03-03 19:37:00,49.3,44.7,30.11,WSW,250,0.0,0.0,84,0.00,,,0.00,WeatherCatV1.14B232,2013-03-04 03:37:00,
2013-03-03 19:42:00,49.2,44.6,30.11,NW,304,0.0,0.0,84,0.00,,,0.00,WeatherCatV1.14B232,2013-03-04 03:42:00,
2013-03-03 19:47:00,48.9,44.6,30.11,NW,304,0.0,0.0,85,0.00,,,0.00,WeatherCatV1.14B232,2013-03-04 03:47:00,
2013-03-03 19:52:00,48.7,44.4,30.11,NW,304,0.0,0.0,85,0.00,,,0.00,WeatherCatV1.14B232,2013-03-04 03:52:00,
2013-03-03 19:57:00,48.6,44.6,30.11,NW,304,0.0,0.0,86,0.00,,,0.00,WeatherCatV1.14B232,2013-03-04 03:57:00,
2013-03-03 20:02:00,48.4,44.4,30.11,NW,304,0.0,0.0,86,0.00,,,0.00,WeatherCatV1.14B232,2013-03-04 04:02:00,
2013-03-03 20:06:00,48.2,44.5,30.11,NW,304,0.0,0.0,87,0.00,,,0.00,WeatherCatV1.14B232,2013-03-04 04:06:00,
2013-03-03 20:11:00,48.0,44.3,30.11,NW,304,0.0,0.0,87,0.00,,,0.00,WeatherCatV1.14B232,2013-03-04 04:11:00,
2013-03-03 20:16:00,47.9,44.2,30.11,NW,304,0.0,0.0,87,0.00,,,0.00,WeatherCatV1.14B232,2013-03-04 04:16:00,
2013-03-03 20:21:00,47.7,44.3,30.11,NW,304,0.0,0.0,88,0.00,,,0.00,WeatherCatV1.14B232,2013-03-04 04:21:00,
2013-03-03 20:26:00,47.6,44.2,30.11,NW,304,0.0,0.0,88,0.00,,,0.00,WeatherCatV1.14B232,2013-03-04 04:26:00,
2013-03-03 20:31:00,47.4,44.0,30.11,NW,304,0.0,0.0,88,0.00,,,0.00,WeatherCatV1.14B232,2013-03-04 04:31:00,
2013-03-03 20:36:00,47.4,44.0,30.11,NW,304,0.0,0.0,88,0.00,,,0.00,WeatherCatV1.14B232,2013-03-04 04:36:00,
2013-03-03 20:41:00,47.3,43.9,30.11,NW,304,0.0,0.0,88,0.00,,,0.00,WeatherCatV1.14B232,2013-03-04 04:41:00,
2013-03-03 20:46:00,47.1,43.7,30.12,NW,304,0.0,0.0,88,0.00,,,0.00,WeatherCatV1.14B232,2013-03-04 04:46:00,
2013-03-03 20:51:00,47.0,43.9,30.12,NW,304,0.0,0.0,89,0.00,,,0.00,WeatherCatV1.14B232,2013-03-04 04:51:00,
2013-03-03 20:56:00,47.1,44.0,30.12,NW,304,0.0,0.0,89,0.00,,,0.00,WeatherCatV1.14B232,2013-03-04 04:56:00,
2013-03-03 21:00:00,47.0,43.9,30.12,NW,304,0.0,0.0,89,0.00,,,0.00,WeatherCatV1.14B232,2013-03-04 05:00:00,
2013-03-03 21:05:00,47.2,44.1,30.13,NW,304,0.0,0.0,89,0.00,,,0.00,WeatherCatV1.14B232,2013-03-04 05:05:00,
2013-03-03 21:10:00,47.3,44.2,30.13,ENE,78,0.0,0.0,89,0.00,,,0.00,WeatherCatV1.14B232,2013-03-04 05:10:00,
2013-03-03 21:15:00,47.6,44.2,30.13,ENE,69,0.0,0.0,88,0.00,,,0.00,WeatherCatV1.14B232,2013-03-04 05:15:00,
2013-03-03 21:20:00,47.5,44.1,30.13,ENE,69,0.0,0.0,88,0.00,,,0.00,WeatherCatV1.14B232,2013-03-04 05:20:00,
2013-03-03 21:25:00,47.3,43.9,30.13,ENE,69,0.0,0.0,88,0.00,,,0.00,WeatherCatV1.14B232,2013-03-04 05:25:00,
2013-03-03 21:30:00,47.1,43.7,30.13,ENE,69,0.0,0.0,88,0.00,,,0.00,WeatherCatV1.14B232,2013-03-04 05:30:00,
2013-03-03 21:35:00,46.9,43.5,30.13,ENE,69,0.0,0.0,88,0.00,,,0.00,WeatherCatV1.14B232,2013-03-04 05:35:00,
2013-03-03 21:39:00,46.7,43.6,30.13,ENE,69,0.0,0.0,89,0.00,,,0.00,WeatherCatV1.14B232,2013-03-04 05:39:00,
2013-03-03 21:45:00,46.7,43.6,30.13,ENE,69,0.0,0.0,89,0.00,,,0.00,WeatherCatV1.14B232,2013-03-04 05:45:00,
2013-03-03 21:50:00,46.6,43.5,30.13,ENE,69,0.0,0.0,89,0.00,,,0.00,WeatherCatV1.14B232,2013-03-04 05:50:00,
2013-03-03 21:55:00,46.5,43.4,30.13,ENE,69,0.0,0.0,89,0.00,,,0.00,WeatherCatV1.14B232,2013-03-04 05:55:00,
2013-03-03 21:59:00,46.3,43.2,30.13,ENE,69,0.0,0.0,89,0.00,,,0.00,WeatherCatV1.14B232,2013-03-04 05:59:00,
2013-03-03 22:04:00,46.2,43.4,30.13,ENE,69,0.0,0.0,90,0.00,,,0.00,WeatherCatV1.14B232,2013-03-04 06:04:00,
2013-03-03 22:09:00,46.2,43.4,30.13,ENE,69,0.0,0.0,90,0.00,,,0.00,WeatherCatV1.14B232,2013-03-04 06:09:00,
2013-03-03 22:14:00,46.3,43.5,30.13,ENE,69,0.0,0.0,90,0.00,,,0.00,WeatherCatV1.14B232,2013-03-04 06:14:00,
2013-03-03 22:19:00,46.2,43.4,30.14,ENE,69,0.0,0.0,90,0.00,,,0.00,WeatherCatV1.14B232,2013-03-04 06:19:00,
2013-03-03 22:24:00,45.9,43.1,30.13,ENE,69,0.0,0.0,90,0.00,,,0.00,WeatherCatV1.14B232,2013-03-04 06:24:00,
2013-03-03 22:29:00,45.7,42.9,30.13,ENE,69,0.0,0.0,90,0.00,,,0.00,WeatherCatV1.14B232,2013-03-04 06:29:00,
2013-03-03 22:34:00,45.4,42.6,30.14,ENE,69,0.0,0.0,90,0.00,,,0.00,WeatherCatV1.14B232,2013-03-04 06:34:00,
2013-03-03 22:39:00,45.2,42.7,30.14,ENE,69,0.0,0.0,91,0.00,,,0.00,WeatherCatV1.14B232,2013-03-04 06:39:00,
2013-03-03 22:44:00,45.2,42.7,30.14,ENE,69,0.0,0.0,91,0.00,,,0.00,WeatherCatV1.14B232,2013-03-04 06:44:00,
2013-03-03 22:49:00,45.1,42.9,30.14,ENE,69,0.0,0.0,92,0.00,,,0.00,WeatherCatV1.14B232,2013-03-04 06:49:00,
2013-03-03 22:54:00,44.9,42.4,30.14,ENE,69,0.0,0.0,91,0.00,,,0.00,WeatherCatV1.14B232,2013-03-04 06:54:00,
2013-03-03 22:59:00,44.7,42.5,30.14,ENE,69,0.0,0.0,92,0.00,,,0.00,WeatherCatV1.14B232,2013-03-04 06:59:00,
2013-03-03 23:04:00,44.8,42.6,30.14,ENE,69,0.0,0.0,92,0.00,,,0.00,WeatherCatV1.14B232,2013-03-04 07:04:00,
2013-03-03 23:09:00,44.8,42.6,30.14,ENE,69,0.0,0.0,92,0.00,,,0.00,WeatherCatV1.14B232,2013-03-04 07:09:00,
2013-03-03 23:14:00,44.9,43.0,30.14,ENE,69,0.0,0.0,93,0.00,,,0.00,WeatherCatV1.14B232,2013-03-04 07:14:00,
2013-03-03 23:19:00,45.3,43.1,30.14,ENE,69,0.0,0.0,92,0.00,,,0.00,WeatherCatV1.14B232,2013-03-04 07:19:00,
2013-03-03 23:24:00,45.7,43.2,30.14,ENE,69,0.0,0.0,91,0.00,,,0.00,WeatherCatV1.14B232,2013-03-04 07:24:00,
2013-03-03 23:29:00,45.9,43.4,30.14,ENE,69,0.0,0.0,91,0.00,,,0.00,WeatherCatV1.14B232,2013-03-04 07:29:00,
2013-03-03 23:34:00,45.9,43.1,30.13,ENE,70,0.0,0.0,90,0.00,,,0.00,WeatherCatV1.14B232,2013-03-04 07:34:00,
2013-03-03 23:39:00,45.7,42.9,30.13,ENE,70,0.0,0.0,90,0.00,,,0.00,WeatherCatV1.14B232,2013-03-04 07:39:00,
2013-03-03 23:44:00,45.5,42.7,30.12,ESE,110,0.0,0.0,90,0.00,,,0.00,WeatherCatV1.14B232,2013-03-04 07:44:00,
2013-03-03 23:49:00,45.3,42.8,30.13,ESE,109,0.0,0.0,91,0.00,,,0.00,WeatherCatV1.14B232,2013-03-04 07:49:00,
2013-03-03 23:54:00,45.2,42.7,30.13,ESE,109,0.0,0.0,91,0.00,,,0.00,WeatherCatV1.14B232,2013-03-04 07:54:00,
2013-03-03 23:59:00,44.9,42.4,30.13,ESE,109,0.0,0.0,91,0.00,,,0.00,WeatherCatV1.14B232,2013-03-04 07:59:00,